sat.trackr.live / text

‹ back to catalog

STARLINK-31914

NORAD 59902 · 2024-100T

PAYLOAD ACTIVE UNKNOWN

§ Identity

Operator
Country
US
Launch date
2024-05-28
Launch site
AFETR
Launch vehicle
Mass (kg)
RCS (m²)

Purposes: comms

External: N2YO · Heavens-Above · Gunter

§ Orbital elements

Epoch: 2026-05-25T02:57:15.308640Z

Period
94.27 min
Inclination
43.0029°
Eccentricity
0.0001152
Mean motion
15.27582988 rev/d
Perigee alt
482.2 km
Apogee alt
483.8 km
Semi-major
6,861.2 km
B*
9.3604e-6
RAAN
53.9749°
Arg perigee
277.4561°
Mean anomaly
82.6160°
Rev number
11,273

§ Raw data

STARLINK-319141 59902U 24100T   26145.12309385 -.00000004  00000+0  93604-5 0  99922 59902  43.0029  53.9749 0001152 277.4561  82.6160 15.27582988112735

JSON: /api/v1/satellites/59902 · /tle

For live sub-satellite position, see the globe view (requires WebGL).

§ Visibility from observer

Set your observer location to see the next 7 days of passes ≥ 10°. The values pass through the URL so the page stays shareable.

No JS? Fill the form by hand. The geolocation button needs JavaScript.